SCP
-0 0 -0 0 -0 0 0 0 0 0 0 0 0 0 0 0 0 0 -0 -0 0 0 -0 0 0 0 0 0 0 0 0 0 0 0 0 0 -0 0 0 0 0 0 0 0
0 0 0 0 0 0 0 0 0 0 0 0 0 0 0 0 -0 -0 0 -0 0 0 0 0 0 0 0 0 0 0 0 0 0 0 0 0 0 0 0 0 0 0 0 0
0 0 0 0 0 0 0 0 0 0 0 0 0 0 0 -0 -0 0 0 0 0 0 0 0 0 0 0 0 0 0 0 0 0 0 0 0 0 0 0 0 0 0 0 0
0 0 -0 0 0 0 0 0 0 0 0 0 0 0 0 -0 -0 0 0 0 0 0 0 0 0 0 0 0 0 0 0 0 0 0 0 0 0 0 0 0 0 0 0 0
0 0 0 0 0 0 0 0 0 0 0 0 0 0 0 0 0 0 0 0 0 0 0 0 0 0 0 0 0 0 0 0 0 0 0 0 0 0 0 0 0 0 0 0
0 0 0 0 0 0 0 0 0 0 0 0 0 0 0 0 0 0 0 0 0 0 0 0 0 0 0 0 0 0 0 0 0 0 0 0 0 0 0 0 0 0 0 0
0 0 0 0 0 0 0 0 0 0 0 0 0 0 0 0 0 0 0 0 0 0 0 0 0 0 0 0 0 0 0 0 0 0 0 0 0 0 0 0 0 0 0 -0
0 0 0 0 0 0 0 0 0 0 0 0 0 0 0 0 0 0 0 0 0 0 0 0 0 0 0 0 0 0 0 0 0 0 0 0 0 0 0 0 0 -0 -0 0
0 0 0 0 0 0 0 0 0 0 0 0 0 0 0 0 0 0 0 0 0 0 0 0 0 0 0 0 0 0 0 0 0 0 0 0 0 0 0 0 -0 -0 0 0
0 0 0 0 0 0 0 0 0 0 0 0 0 0 0 0 0 0 0 0 0 0 0 0 0 0 0 0 0 0 0 0 0 0 0 0 0 0 0 0 0 0 0 0
0 0 0 0 0 0 0 0 0 0 0 0 0 0 0 0 0 0 0 0 0 0 0 0 0 0 0 0 0 0 0 0 0 0 0 0 0 0 0 0 0 0 0 0
0 0 0 0 0 0 0 0 0 0 0 0 0 0 0 0 0 0 0 0 0 0 0 0 0 0 0 0 0 0 0 0 0 0 0 0 0 0 0 0 0 0 0 0
0 0 0 0 0 0 0 0 0 0 0 0 0 0 0 0 0 0 0 0 0 0 0 0 0 0 0 0 0 0 0 0 0 0 0 0 0 0 0 0 0 0 0 0
0 0 0 0 0 0 0 0 0 0 -0 0 0 0 0 0 0 0 0 0 0 0 0 0 0 0 0 0 0 0 0 0 0 0 0 0 0 0 0 0 0 0 0 0
0 0 0 0 0 0 0 -0 -0 0 -0 0 0 0 0 0 0 0 0 0 0 0 0 0 0 0 0 0 0 0 0 0 0 0 0 0 0 0 0 0 0 0 0 0
0 0 0 0 0 0 0 0 0 0 0 0 0 0 0 0 0 0 0 0 0 0 0 0 0 0 0 0 0 0 0 0 0 0 0 0 0 0 0 0 0 0 0 0
0 0 0 0 0 0 0 0 0 0 0 0 0 0 0 0 0 0 0 0 0 0 0 0 0 0 0 0 0 0 0 0 0 0 0 0 0 0 0 0 0 0 0 0
0 0 0 0 0 0 0 -0 0 0 0 0 0 0 0 0 0 0 0 0 0 0 0 0 0 0 -0 0 0 0 0 0 0 0 0 0 0 0 0 0 0 0 0 0
0 0 0 0 0 0 -0 -0 0 0 0 0 0 0 0 0 0 0 0 0 0 0 0 0 0 0 0 0 0 0 0 0 0 0 0 0 0 0 0 0 0 0 0 0
0 0 0 0 -0 0 0 0 0 0 0 0 0 0 0 0 0 0 0 0 0 0 0 0 0 0 0 0 0 -0 0 0 0 0 0 0 0 0 0 0 0 0 0 0
0 -0 0 -0 -0 0 0 0 0 0 0 0 0 0 0 0 0 0 0 0 0 0 0 0 0 0 0 0 0 -0 0 0 0 0 0 0 0 0 0 0 0 0 0 0
0 -0 -0 -0 0 0 0 0 0 0 0 0 0 0 0 0 0 0 0 0 0 0 0 -0 0 0 0 0 -0 -0 -0 0 0 0 -0 0 0 0 0 0 0 0 0 0
0 0 0 0 0 -0 -0 -0 -0 0 0 0 0 0 0 0 0 0 0 0 0 0 0 0 0 0 0 0 -0 -0 0 0 -0 0 0 0 0 0 0 0 0 0 0 0
0 -0 0 0 -0 0 0 0 0 0 0 0 0 0 0 0 0 0 0 0 0 0 0 0 0 0 0 -0 -0 -0 0 0 0 -0 0 0 0 0 0 0 0 0 0 0
0 0 0 0 0 0 0 0 0 0 0 0 0 0 0 0 0 0 0 0 0 0 0 0 0 0 0 -0 -0 0 0 0 -0 0 -0 0 0 0 0 0 0 0 0 0
0 0 0 0 0 0 0 0 0 0 0 0 0 0 0 0 0 0 0 0 0 0 0 0 0 0 -0 -0 -0 -0 -0 -0 -0 0 0 0 0 0 0 0 0 -0 -0 0
Wind_Speed_500mb
10 11 9 14 15 9 15 32 29 13 21 25 28 14 5 0 17 16 17 16 17 13 9 6 2 8 17 16 18 23 25 24 24 34 46 44 42 44 35 29 33 31 32 33
12 9 1 4 13 14 26 29 22 22 15 25 15 16 12 12 11 15 13 15 14 10 5 5 9 14 14 7 17 21 23 26 35 43 44 44 46 41 37 30 27 26 27 28
13 9 8 19 6 16 4 14 16 23 18 23 26 11 7 4 5 10 14 17 15 11 7 2 10 13 12 13 18 19 24 33 42 45 47 51 44 38 37 31 26 21 20 22
10 11 18 17 10 11 8 19 42 52 22 11 3 7 5 4 5 16 16 22 19 8 5 4 7 6 6 13 13 18 32 41 43 41 40 44 41 41 38 39 37 33 29 28
2 3 13 18 6 4 5 47 47 28 24 14 3 7 5 5 2 9 13 22 20 9 8 2 8 8 3 13 22 29 37 43 37 34 39 44 44 40 39 40 35 28 25 28
2 1 5 8 8 8 7 15 12 10 8 8 7 7 7 9 13 14 21 21 17 12 11 8 9 5 6 14 25 37 41 27 32 38 44 40 39 39 38 33 31 28 23 20
12 9 6 5 8 10 12 13 7 8 10 4 3 7 9 7 14 17 31 25 19 12 13 13 11 7 15 27 39 35 25 31 36 46 34 34 37 40 37 36 31 25 21 19
6 13 11 12 5 8 9 11 9 7 8 6 8 6 5 2 17 23 27 24 22 14 16 13 5 12 26 36 28 21 24 27 37 45 38 33 30 38 37 31 28 28 17 30
6 8 9 18 9 4 2 8 5 13 6 8 3 4 5 10 13 19 24 30 22 22 15 8 6 19 25 20 18 17 24 29 34 40 44 35 32 30 33 28 24 23 26 23
3 3 7 7 17 23 13 6 7 7 8 5 4 5 6 12 13 17 23 25 28 24 14 4 11 19 10 13 14 16 26 29 31 38 40 39 33 32 28 26 26 27 21 19
5 6 13 7 10 2 9 7 10 10 7 8 6 8 10 16 18 20 35 33 32 23 11 4 14 13 11 8 10 17 24 27 34 34 38 39 34 31 28 25 19 17 16 13
7 7 4 5 13 8 8 4 7 9 1 5 6 8 9 23 38 41 31 35 32 20 7 7 12 8 11 9 10 19 25 28 30 37 34 33 38 36 29 28 25 18 17 16
2 7 6 12 11 13 12 9 10 12 6 1 7 9 13 17 26 29 33 39 29 16 5 5 4 6 12 9 12 18 25 29 28 31 31 32 29 34 36 32 26 18 19 19
8 6 8 9 4 5 12 14 10 10 7 5 5 5 2 8 10 23 32 30 20 10 2 3 6 9 8 9 13 19 22 29 28 31 32 30 34 34 39 38 32 21 17 20
9 11 11 13 26 31 24 20 19 13 7 6 7 7 7 6 11 27 34 24 14 6 5 5 7 8 4 9 13 16 19 27 26 25 26 27 27 34 40 38 34 34 30 27
7 4 9 17 27 28 25 16 18 16 11 9 9 6 5 17 24 32 26 14 8 12 9 5 7 5 3 11 16 15 17 23 22 25 27 25 27 29 35 34 33 26 29 27
5 12 6 11 3 4 14 14 11 8 10 3 2 5 13 11 23 26 20 14 13 12 6 7 7 2 6 10 16 16 16 17 21 25 26 25 28 34 30 29 26 22 28 31
7 6 4 3 7 7 5 9 15 15 9 7 9 8 7 19 20 20 14 8 8 9 8 7 5 3 7 11 12 13 10 13 18 19 24 26 31 33 30 31 26 25 26 30
14 4 8 7 6 4 4 1 6 2 4 11 8 13 17 22 16 10 12 10 7 4 5 4 2 3 9 10 10 7 7 9 14 13 16 20 25 23 24 25 30 28 26 26
11 9 7 5 8 4 5 12 31 17 4 8 7 23 28 24 1 12 18 13 5 2 1 4 4 5 8 6 10 6 9 11 13 14 16 17 20 18 18 19 13 16 19 21
9 8 7 6 7 4 10 28 5 6 8 3 1 20 30 17 20 6 13 13 7 4 3 2 3 5 7 7 4 1 8 8 10 11 11 14 22 25 24 12 9 9 11 12
6 5 4 5 8 6 31 17 11 7 5 3 4 5 13 14 8 9 12 12 10 10 9 7 9 6 6 5 5 1 6 5 7 5 5 12 20 26 29 25 10 11 9 9
7 4 4 5 8 2 10 16 11 8 7 6 7 8 7 7 13 18 18 18 14 12 11 8 7 9 8 5 7 6 5 5 4 3 6 14 16 24 25 22 23 16 13 15
13 16 7 6 0 12 11 8 3 2 6 3 7 3 10 12 17 19 17 16 15 14 12 10 9 9 6 5 11 11 8 2 0 5 5 8 14 24 30 29 16 17 22 21
7 12 5 5 4 4 12 11 10 8 7 10 9 7 7 11 14 13 14 13 12 15 13 11 12 13 9 8 11 12 7 4 3 2 8 11 14 21 31 35 14 15 16 20
19 8 4 6 15 10 27 15 8 18 17 14 15 12 17 16 13 14 15 13 13 15 18 17 18 17 13 13 11 14 9 10 7 4 13 18 13 24 32 28 15 10 13 14
Wind_Direction_500mb
21 46 258 284 193 193 97 85 92 114 123 84 117 117 116 243 125 159 184 166 158 148 155 141 348 300 299 322 332 333 329 326 329 336 341 342 345 342 327 303 294 296 288 287
8 260 236 252 78 111 98 104 94 74 99 108 142 110 131 190 172 186 191 199 168 177 226 268 314 297 324 300 316 311 313 324 333 336 340 338 332 331 325 315 303 295 286 289
181 244 29 108 69 104 72 134 172 134 102 110 130 77 97 42 173 175 217 214 197 199 235 337 331 325 304 294 302 304 319 327 331 334 336 334 327 323 321 322 324 319 307 298
102 354 94 117 146 143 71 116 134 138 129 153 235 115 265 211 248 169 197 208 204 197 201 325 334 328 306 282 292 310 318 325 328 335 345 341 342 337 332 326 320 310 295 290
219 100 81 66 346 87 105 137 148 150 119 114 91 114 193 120 262 177 204 200 198 220 191 3 321 296 248 274 305 316 326 331 339 349 344 341 338 331 322 320 316 313 315 289
87 61 60 117 33 53 97 132 101 116 117 70 279 139 201 184 200 173 203 200 200 221 211 260 247 273 343 331 331 334 341 353 355 351 343 346 351 351 344 340 337 332 327 318
347 343 296 116 125 21 73 59 359 8 29 181 253 73 229 201 171 189 187 195 212 235 225 210 222 276 323 334 336 349 7 1 357 354 352 352 2 1 354 349 352 346 346 357
83 360 1 313 93 146 77 129 146 252 178 201 7 134 235 150 168 171 173 186 183 179 185 196 230 338 338 342 345 2 355 356 356 357 357 355 354 4 6 0 4 9 18 41
57 359 3 50 43 70 44 52 171 107 68 97 218 125 120 112 102 132 173 182 175 171 176 150 19 344 341 356 0 10 356 356 1 9 9 3 4 356 5 9 13 7 57 49
14 -0 10 333 41 26 95 153 23 16 134 111 179 246 236 182 174 171 181 186 166 163 157 113 354 340 350 1 2 357 357 6 6 8 9 11 9 15 14 16 20 67 52 31
30 77 304 39 26 222 11 11 51 109 78 142 166 256 210 187 187 185 195 193 178 168 154 26 348 347 351 2 359 2 5 358 8 15 14 18 18 20 22 18 23 17 25 14
354 123 55 24 313 3 81 76 99 109 159 62 126 269 315 183 183 193 183 187 173 170 152 7 7 14 20 357 348 1 9 6 4 12 14 20 24 28 24 24 25 25 14 13
18 21 20 352 347 2 47 359 86 93 86 41 127 266 41 140 157 180 163 164 162 163 136 29 354 359 5 22 3 7 12 13 19 12 12 12 14 22 27 22 25 30 36 31
94 79 155 190 247 126 53 29 20 91 83 160 216 201 251 183 136 143 154 157 160 155 150 314 353 1 15 19 19 22 16 18 19 12 14 31 33 32 37 33 35 40 35 27
81 52 50 64 89 78 75 63 43 54 119 106 209 188 255 210 161 165 159 158 165 198 266 317 353 356 28 16 10 10 7 13 19 13 27 32 43 43 40 37 51 49 46 45
23 95 64 51 84 81 71 37 52 34 25 36 54 18 52 112 145 151 158 161 210 233 238 322 337 332 0 5 359 2 7 17 23 37 51 56 39 28 28 30 48 43 39 52
64 134 129 169 27 65 42 10 46 56 30 112 312 310 136 101 140 161 172 200 213 230 265 303 317 260 349 3 357 3 12 46 51 52 57 40 28 27 28 34 45 54 60 65
58 68 63 91 7 53 97 9 105 85 23 70 90 93 145 155 158 170 188 197 248 263 288 316 294 236 339 348 350 359 36 72 53 53 44 40 37 37 42 41 52 62 74 77
48 88 68 108 54 299 280 277 318 347 17 344 131 144 146 144 148 207 212 238 258 292 287 312 219 330 355 356 357 17 79 67 54 61 59 31 39 69 49 49 58 63 68 75
8 68 115 87 99 108 291 320 322 155 340 19 201 178 172 163 132 266 213 225 256 240 280 113 79 2 1 356 9 85 106 82 75 81 52 39 34 35 28 35 38 50 56 56
341 358 47 96 92 20 303 343 31 67 250 321 135 213 193 206 246 311 203 224 240 230 256 232 274 330 348 357 29 145 122 91 99 78 48 33 18 27 24 24 17 30 35 49
354 8 23 69 71 10 353 6 77 197 172 255 264 245 218 232 237 225 227 228 241 260 251 277 269 292 314 320 166 264 159 80 101 100 57 36 23 16 17 19 345 339 345 348
33 115 113 94 184 161 78 102 111 166 190 243 314 293 249 247 234 235 243 239 248 256 240 261 259 282 292 227 184 184 142 78 90 70 5 355 11 10 11 8 13 1 326 303
344 36 74 69 5 146 156 148 156 269 317 327 334 345 233 254 241 250 245 248 256 234 233 264 246 288 286 190 179 174 151 36 112 295 346 35 11 351 359 357 335 344 3 8
317 358 19 13 13 236 241 244 240 259 285 319 319 303 291 249 294 260 259 265 246 233 242 254 262 277 255 204 187 179 195 196 311 274 337 344 329 349 359 4 345 316 327 5
16 328 66 240 339 330 343 318 289 285 287 316 309 300 271 269 297 285 272 259 256 252 251 264 271 269 239 217 209 194 217 232 274 284 332 340 333 343 352 351 341 329 308 317
Wind_Speed_850mb
10 11 9 14 15 9 15 32 29 13 21 25 28 14 5 0 17 16 17 16 17 13 9 6 2 8 17 16 18 23 25 24 24 34 46 44 42 44 35 29 33 31 32 33
12 9 1 4 13 14 26 29 22 22 15 25 15 16 12 12 11 15 13 15 14 10 5 5 9 14 14 7 17 21 23 26 35 43 44 44 46 41 37 30 27 26 27 28
13 9 8 19 6 16 4 14 16 23 18 23 26 11 7 4 5 10 14 17 15 11 7 2 10 13 12 13 18 19 24 33 42 45 47 51 44 38 37 31 26 21 20 22
10 11 18 17 10 11 8 19 42 52 22 11 3 7 5 4 5 16 16 22 19 8 5 4 7 6 6 13 13 18 32 41 43 41 40 44 41 41 38 39 37 33 29 28
2 3 13 18 6 4 5 47 47 28 24 14 3 7 5 5 2 9 13 22 20 9 8 2 8 8 3 13 22 29 37 43 37 34 39 44 44 40 39 40 35 28 25 28
2 1 5 8 8 8 7 15 12 10 8 8 7 7 7 9 13 14 21 21 17 12 11 8 9 5 6 14 25 37 41 27 32 38 44 40 39 39 38 33 31 28 23 20
12 9 6 5 8 10 12 13 7 8 10 4 3 7 9 7 14 17 31 25 19 12 13 13 11 7 15 27 39 35 25 31 36 46 34 34 37 40 37 36 31 25 21 19
6 13 11 12 5 8 9 11 9 7 8 6 8 6 5 2 17 23 27 24 22 14 16 13 5 12 26 36 28 21 24 27 37 45 38 33 30 38 37 31 28 28 17 30
6 8 9 18 9 4 2 8 5 13 6 8 3 4 5 10 13 19 24 30 22 22 15 8 6 19 25 20 18 17 24 29 34 40 44 35 32 30 33 28 24 23 26 23
3 3 7 7 17 23 13 6 7 7 8 5 4 5 6 12 13 17 23 25 28 24 14 4 11 19 10 13 14 16 26 29 31 38 40 39 33 32 28 26 26 27 21 19
5 6 13 7 10 2 9 7 10 10 7 8 6 8 10 16 18 20 35 33 32 23 11 4 14 13 11 8 10 17 24 27 34 34 38 39 34 31 28 25 19 17 16 13
7 7 4 5 13 8 8 4 7 9 1 5 6 8 9 23 38 41 31 35 32 20 7 7 12 8 11 9 10 19 25 28 30 37 34 33 38 36 29 28 25 18 17 16
2 7 6 12 11 13 12 9 10 12 6 1 7 9 13 17 26 29 33 39 29 16 5 5 4 6 12 9 12 18 25 29 28 31 31 32 29 34 36 32 26 18 19 19
8 6 8 9 4 5 12 14 10 10 7 5 5 5 2 8 10 23 32 30 20 10 2 3 6 9 8 9 13 19 22 29 28 31 32 30 34 34 39 38 32 21 17 20
9 11 11 13 26 31 24 20 19 13 7 6 7 7 7 6 11 27 34 24 14 6 5 5 7 8 4 9 13 16 19 27 26 25 26 27 27 34 40 38 34 34 30 27
7 4 9 17 27 28 25 16 18 16 11 9 9 6 5 17 24 32 26 14 8 12 9 5 7 5 3 11 16 15 17 23 22 25 27 25 27 29 35 34 33 26 29 27
5 12 6 11 3 4 14 14 11 8 10 3 2 5 13 11 23 26 20 14 13 12 6 7 7 2 6 10 16 16 16 17 21 25 26 25 28 34 30 29 26 22 28 31
7 6 4 3 7 7 5 9 15 15 9 7 9 8 7 19 20 20 14 8 8 9 8 7 5 3 7 11 12 13 10 13 18 19 24 26 31 33 30 31 26 25 26 30
14 4 8 7 6 4 4 1 6 2 4 11 8 13 17 22 16 10 12 10 7 4 5 4 2 3 9 10 10 7 7 9 14 13 16 20 25 23 24 25 30 28 26 26
11 9 7 5 8 4 5 12 31 17 4 8 7 23 28 24 1 12 18 13 5 2 1 4 4 5 8 6 10 6 9 11 13 14 16 17 20 18 18 19 13 16 19 21
9 8 7 6 7 4 10 28 5 6 8 3 1 20 30 17 20 6 13 13 7 4 3 2 3 5 7 7 4 1 8 8 10 11 11 14 22 25 24 12 9 9 11 12
6 5 4 5 8 6 31 17 11 7 5 3 4 5 13 14 8 9 12 12 10 10 9 7 9 6 6 5 5 1 6 5 7 5 5 12 20 26 29 25 10 11 9 9
7 4 4 5 8 2 10 16 11 8 7 6 7 8 7 7 13 18 18 18 14 12 11 8 7 9 8 5 7 6 5 5 4 3 6 14 16 24 25 22 23 16 13 15
13 16 7 6 0 12 11 8 3 2 6 3 7 3 10 12 17 19 17 16 15 14 12 10 9 9 6 5 11 11 8 2 0 5 5 8 14 24 30 29 16 17 22 21
7 12 5 5 4 4 12 11 10 8 7 10 9 7 7 11 14 13 14 13 12 15 13 11 12 13 9 8 11 12 7 4 3 2 8 11 14 21 31 35 14 15 16 20
19 8 4 6 15 10 27 15 8 18 17 14 15 12 17 16 13 14 15 13 13 15 18 17 18 17 13 13 11 14 9 10 7 4 13 18 13 24 32 28 15 10 13 14
Wind_Direction_850mb
21 46 258 284 193 193 97 85 92 114 123 84 117 117 116 243 125 159 184 166 158 148 155 141 348 300 299 322 332 333 329 326 329 336 341 342 345 342 327 303 294 296 288 287
8 260 236 252 78 111 98 104 94 74 99 108 142 110 131 190 172 186 191 199 168 177 226 268 314 297 324 300 316 311 313 324 333 336 340 338 332 331 325 315 303 295 286 289
181 244 29 108 69 104 72 134 172 134 102 110 130 77 97 42 173 175 217 214 197 199 235 337 331 325 304 294 302 304 319 327 331 334 336 334 327 323 321 322 324 319 307 298
102 354 94 117 146 143 71 116 134 138 129 153 235 115 265 211 248 169 197 208 204 197 201 325 334 328 306 282 292 310 318 325 328 335 345 341 342 337 332 326 320 310 295 290
219 100 81 66 346 87 105 137 148 150 119 114 91 114 193 120 262 177 204 200 198 220 191 3 321 296 248 274 305 316 326 331 339 349 344 341 338 331 322 320 316 313 315 289
87 61 60 117 33 53 97 132 101 116 117 70 279 139 201 184 200 173 203 200 200 221 211 260 247 273 343 331 331 334 341 353 355 351 343 346 351 351 344 340 337 332 327 318
347 343 296 116 125 21 73 59 359 8 29 181 253 73 229 201 171 189 187 195 212 235 225 210 222 276 323 334 336 349 7 1 357 354 352 352 2 1 354 349 352 346 346 357
83 360 1 313 93 146 77 129 146 252 178 201 7 134 235 150 168 171 173 186 183 179 185 196 230 338 338 342 345 2 355 356 356 357 357 355 354 4 6 0 4 9 18 41
57 359 3 50 43 70 44 52 171 107 68 97 218 125 120 112 102 132 173 182 175 171 176 150 19 344 341 356 0 10 356 356 1 9 9 3 4 356 5 9 13 7 57 49
14 -0 10 333 41 26 95 153 23 16 134 111 179 246 236 182 174 171 181 186 166 163 157 113 354 340 350 1 2 357 357 6 6 8 9 11 9 15 14 16 20 67 52 31
30 77 304 39 26 222 11 11 51 109 78 142 166 256 210 187 187 185 195 193 178 168 154 26 348 347 351 2 359 2 5 358 8 15 14 18 18 20 22 18 23 17 25 14
354 123 55 24 313 3 81 76 99 109 159 62 126 269 315 183 183 193 183 187 173 170 152 7 7 14 20 357 348 1 9 6 4 12 14 20 24 28 24 24 25 25 14 13
18 21 20 352 347 2 47 359 86 93 86 41 127 266 41 140 157 180 163 164 162 163 136 29 354 359 5 22 3 7 12 13 19 12 12 12 14 22 27 22 25 30 36 31
94 79 155 190 247 126 53 29 20 91 83 160 216 201 251 183 136 143 154 157 160 155 150 314 353 1 15 19 19 22 16 18 19 12 14 31 33 32 37 33 35 40 35 27
81 52 50 64 89 78 75 63 43 54 119 106 209 188 255 210 161 165 159 158 165 198 266 317 353 356 28 16 10 10 7 13 19 13 27 32 43 43 40 37 51 49 46 45
23 95 64 51 84 81 71 37 52 34 25 36 54 18 52 112 145 151 158 161 210 233 238 322 337 332 0 5 359 2 7 17 23 37 51 56 39 28 28 30 48 43 39 52
64 134 129 169 27 65 42 10 46 56 30 112 312 310 136 101 140 161 172 200 213 230 265 303 317 260 349 3 357 3 12 46 51 52 57 40 28 27 28 34 45 54 60 65
58 68 63 91 7 53 97 9 105 85 23 70 90 93 145 155 158 170 188 197 248 263 288 316 294 236 339 348 350 359 36 72 53 53 44 40 37 37 42 41 52 62 74 77
48 88 68 108 54 299 280 277 318 347 17 344 131 144 146 144 148 207 212 238 258 292 287 312 219 330 355 356 357 17 79 67 54 61 59 31 39 69 49 49 58 63 68 75
8 68 115 87 99 108 291 320 322 155 340 19 201 178 172 163 132 266 213 225 256 240 280 113 79 2 1 356 9 85 106 82 75 81 52 39 34 35 28 35 38 50 56 56
341 358 47 96 92 20 303 343 31 67 250 321 135 213 193 206 246 311 203 224 240 230 256 232 274 330 348 357 29 145 122 91 99 78 48 33 18 27 24 24 17 30 35 49
354 8 23 69 71 10 353 6 77 197 172 255 264 245 218 232 237 225 227 228 241 260 251 277 269 292 314 320 166 264 159 80 101 100 57 36 23 16 17 19 345 339 345 348
33 115 113 94 184 161 78 102 111 166 190 243 314 293 249 247 234 235 243 239 248 256 240 261 259 282 292 227 184 184 142 78 90 70 5 355 11 10 11 8 13 1 326 303
344 36 74 69 5 146 156 148 156 269 317 327 334 345 233 254 241 250 245 248 256 234 233 264 246 288 286 190 179 174 151 36 112 295 346 35 11 351 359 357 335 344 3 8
317 358 19 13 13 236 241 244 240 259 285 319 319 303 291 249 294 260 259 265 246 233 242 254 262 277 255 204 187 179 195 196 311 274 337 344 329 349 359 4 345 316 327 5
16 328 66 240 339 330 343 318 289 285 287 316 309 300 271 269 297 285 272 259 256 252 251 264 271 269 239 217 209 194 217 232 274 284 332 340 333 343 352 351 341 329 308 317